Flag for Switzerland Weather past 2 weeks in Stäfa, Zurich, Switzerland

Now
58 °F

Refreshingly cool.


Feels Like: 58 °F
Forecast: 33 / 53 °F
Wind: 2 mph from Northeast

Location: Zurich Town / Ville.


UV Index: 3 (Moderate)

Visibility: N/A


Pressure: 30.02 "Hg

Humidity: 27%

Dew point: 23 °F

Location of StäfaLocation

Historic Weather in Stäfa

°F

Stäfa temperature yesterday

Maximum temperature yesterday: 58 °F (at 4:00 PM)
Minimum temperature yesterday: 35 °F (at 6:00 AM)
Average temperature yesterday: 44 °F

Past Weeks' High & Low Weather Summary

 TemperatureHumidityPressure
High69 °F (Apr 2, 6:00 PM)98% (Apr 6, 6:00 AM)30.34 "Hg (Apr 6, 6:00 AM)
Low35 °F (Apr 16, 7:00 AM)25% (Apr 2, 6:00 PM)29.63 "Hg (Apr 3, 4:00 PM)
Average53 °F61%30.05 "Hg
* Reported Apr 2 6:00 PM — Apr 17 6:00 PM, Stäfa, Weather by CustomWeather, © 2014

Note: Actual official high and low records may vary slightly from our data, if they occured in-between our weather recording intervals... More about our weather records

Advertising

Historic Weather Conditions — Data for Previous 24 hours

 ConditionsComfort  
Time TempWeatherWind HumidityBarometerVisibility
6:00 PM
Apr 17
58 °FRefreshingly cool.2 mph27%30.02 "HgN/A
4:00 PM58 °FRefreshingly cool.7 mph25%30.05 "HgN/A
3:00 PM56 °FRefreshingly cool.7 mph27%30.08 "HgN/A
2:00 PM53 °FPassing clouds.6 mph32%30.11 "Hg19 mi
1:00 PM54 °FCool.8 mph37%30.14 "HgN/A
12:00 PM50 °FCool.7 mph44%30.18 "HgN/A
11:00 AM47 °FCool.7 mph54%30.20 "HgN/A
10:00 AM42 °FQuite cool.7 mph62%30.23 "HgN/A
9:00 AM40 °FQuite cool.7 mph65%30.24 "HgN/A
8:00 AM37 °FPassing clouds.2 mph73%30.25 "Hg43 mi
7:00 AM35 °FChilly.7 mph76%30.26 "HgN/A
6:00 AM35 °FChilly.6 mph76%30.27 "HgN/A
5:00 AM37 °FChilly.3 mph71%30.27 "HgN/A
4:00 AM38 °FChilly.6 mph68%30.28 "HgN/A
3:00 AM38 °FChilly.5 mph64%30.29 "HgN/A
2:00 AM39 °FChilly.3 mph60%30.30 "HgN/A
1:00 AM40 °FQuite cool.6 mph59%30.30 "HgN/A
Weather by CustomWeather, © 2014

See weather overview